User: anonymous   Login
Location: Fort Wayne
(41.1310°N, 85.1290°W)
Time: 22:53:30
(UTC-05:00)
Language:

Iridium 37 - Orbit

View from above orbital plane
View from above orbital plane
View from above satellite
View from above satellite

Ground track
Ground track

The orbit data is extracted from the following two-line orbital elements,

1 24968U 97056D   17054.38716908  .00000150  00000-0  46493-4 0  9991
2 24968  86.3994   6.4481 0002213  87.0550 273.0899 14.34213131 16228
Epoch (UTC): 23 February 2017 09:17:31
Eccentricity: 0.0002213
inclination: 86.3994°
perigee height: 776 km
apogee height: 779 km
right ascension of ascending node: 6.4481°
argument of perigee: 87.0550°
revolutions per day: 14.34213131
mean anomaly at epoch: 273.0899°
orbit number at epoch: 1622

The dashed part of the orbit path shows where the satellite is in the earth's shadow,  

DLR